Temperature
16 16 17 17 14 11 13 14 15 16 17 18 19 18 17 16 17 16 15 15 15 15 15 15 15 15 16 16 16 15 15 15 15 15 15 15 15 15 15 15 15 15 15 15 15 15 15 15 15
15 16 16 16 12 12 13 14 15 16 18 18 18 18 16 15 16 15 15 15 15 15 15 15 15 15 15 15 15 15 15 15 14 14 14 15 15 15 15 15 15 15 15 15 15 15 15 14 14
15 16 16 11 11 12 14 15 15 16 18 18 17 17 16 15 15 15 15 15 15 15 15 15 15 15 15 15 15 15 15 14 14 14 14 14 14 15 15 15 15 15 15 15 15 14 14 14 14
15 15 14 11 12 13 14 15 15 16 17 17 17 15 15 15 15 15 15 15 15 15 15 15 15 14 15 15 15 15 14 14 14 14 14 14 14 14 15 15 15 14 14 14 14 14 14 14 14
15 14 11 11 12 13 14 15 16 15 15 16 16 14 14 14 14 14 14 14 14 14 14 14 14 14 14 14 14 14 14 14 14 14 14 14 14 14 14 14 14 14 14 14 14 14 14 14 14
14 12 10 11 12 13 14 15 16 15 15 15 15 13 13 14 14 14 14 14 14 14 14 14 14 14 14 14 14 14 14 14 14 14 14 14 14 14 14 14 14 14 14 14 14 14 14 14 13
13 9 10 11 12 13 14 15 15 14 14 15 15 13 13 13 14 14 13 13 13 13 13 13 14 14 14 13 14 14 14 14 14 14 14 14 14 14 14 14 14 14 14 14 14 14 13 13 13
13 10 11 11 12 13 13 14 15 14 14 15 15 13 13 13 13 13 13 13 13 13 13 13 13 13 13 13 13 13 13 13 14 14 14 14 14 14 14 14 14 14 14 14 13 13 13 13 13
13 9 10 11 12 12 13 13 14 14 14 14 14 14 14 13 13 13 12 12 12 12 12 13 13 13 13 13 13 13 13 13 13 14 14 14 14 14 14 14 14 14 14 13 13 13 13 13 13
12 8 11 12 12 12 12 12 13 13 13 13 13 13 13 13 12 12 12 12 12 12 12 12 12 13 13 13 13 13 13 13 13 13 13 14 14 13 13 13 13 13 13 13 13 13 13 12 12
11 10 11 12 12 12 12 12 13 12 11 12 13 13 12 12 12 12 12 12 11 12 12 12 12 12 12 12 13 13 13 13 13 13 13 13 13 13 13 13 13 13 13 13 13 12 12 12 12
11 11 11 12 12 12 12 12 12 12 12 13 13 13 12 12 12 12 11 11 11 11 11 12 12 12 12 12 12 12 12 12 13 13 13 13 13 13 13 13 13 13 13 13 12 12 12 12 12
10 10 11 12 12 12 12 11 11 12 13 13 13 12 12 12 12 12 11 11 11 11 11 11 11 11 11 11 12 12 12 12 12 12 12 12 12 13 12 12 12 12 12 12 12 12 12 12 12
10 10 11 11 11 11 11 11 11 12 13 13 13 12 12 12 11 11 11 11 11 11 11 11 11 11 11 11 11 11 12 12 12 12 12 12 12 12 12 12 12 12 12 12 12 11 11 11 11
11 9 10 10 11 11 11 10 10 12 13 12 12 12 12 12 11 11 11 11 11 11 11 11 11 11 11 11 11 11 11 11 11 11 11 12 12 12 12 12 12 12 11 11 11 11 11 11 11
10 9 9 10 11 11 10 9 10 12 12 12 12 12 11 11 11 11 11 11 11 11 10 10 10 10 11 11 11 11 11 11 11 11 11 11 11 11 11 11 11 11 11 11 11 11 11 11 10
8 8 9 10 10 10 10 9 10 12 11 11 11 11 11 11 11 11 11 11 11 10 10 10 10 10 10 10 10 10 10 10 10 11 11 11 11 11 11 11 11 11 11 11 10 10 10 10 10
9 8 9 9 10 10 9 9 10 11 11 11 11 11 11 11 11 11 11 11 10 10 10 10 10 10 10 10 10 10 10 10 10 10 10 10 10 11 11 11 10 10 10 10 10 10 10 10 10
9 9 8 9 10 9 8 9 9 10 10 10 10 10 10 10 11 11 10 10 10 10 10 10 10 10 9 9 10 10 10 10 10 10 10 10 10 10 10 10 10 10 10 10 10 10 10 9 9
9 8 8 9 9 9 8 8 9 9 9 10 10 10 10 10 10 10 10 10 10 10 10 9 9 9 9 9 10 10 10 9 9 9 9 9 9 10 10 10 10 10 10 10 10 10 10 9 9
9 8 8 8 9 9 9 8 9 9 10 10 10 10 10 10 10 10 10 10 10 9 9 9 9 9 9 9 9 9 9 9 9 9 9 9 9 9 9 9 10 9 9 9 9 9 9 9 9
8 9 9 9 8 7 8 7 8 8 8 9 9 10 10 10 10 10 10 9 9 9 9 9 9 9 9 8 9 9 9 9 9 9 9 9 9 9 9 9 9 9 9 9 9 9 9 9 9
8 9 9 8 8 7 7 7 7 7 8 8 9 10 10 10 10 10 10 10 9 9 9 9 9 8 8 8 8 8 8 8 8 8 8 8 9 9 9 9 9 9 9 9 9 9 9 8 9
9 8 8 6 6 7 7 7 7 7 8 8 8 9 10 10 10 9 9 9 9 9 9 9 8 8 8 8 8 8 8 8 8 8 8 8 8 8 8 8 8 8 8 8 8 8 8 8 8
8 7 7 7 6 7 7 7 7 8 8 8 8 9 9 9 9 9 9 9 9 9 9 8 8 8 8 8 8 8 8 8 8 8 8 8 8 8 8 8 8 8 8 8 8 8 8 8 8
7 7 7 8 7 6 7 7 7 8 8 9 9 9 9 9 9 9 8 8 8 9 8 8 8 8 8 8 8 7 7 7 7 7 8 8 8 8 8 8 8 8 8 8 8 7 7 7 7
8 7 7 6 6 6 6 7 8 8 7 7 7 8 8 8 8 8 8 8 8 8 8 8 8 8 7 7 7 7 7 7 7 7 7 7 7 7 7 7 7 7 7 7 7 7 7 7 7
8 7 6 6 7 7 7 7 7 7 7 6 6 7 7 8 8 8 8 8 8 8 8 8 7 7 7 7 7 7 7 7 7 7 7 7 7 7 7 7 7 7 7 7 7 7 7 7 6
7 7 6 5 5 6 6 7 7 7 7 6 6 7 7 7 7 7 7 7 7 7 7 7 7 7 7 6 6 6 7 7 7 7 7 7 7 7 7 7 7 7 7 6 6 6 6 6 6
7 7 6 6 6 5 5 6 8 7 6 6 6 7 7 7 7 7 7 7 7 7 7 7 6 6 6 6 6 6 6 6 6 6 6 6 6 6 6 6 6 6 6 6 6 6 6 6 6
Wind_Speed
15 12 2 4 5 4 1 3 2 3 2 3 1 3 5 4 2 3 2 4 7 8 9 10 10 9 9 9 9 8 9 9 9 9 9 9 9 10 9 9 9 9 10 10 11 12 11 11 11
10 4 5 5 5 2 3 4 4 5 4 3 2 3 5 3 3 6 2 4 7 8 9 9 10 9 9 9 9 8 8 8 8 8 8 8 9 9 9 9 8 9 9 10 11 11 11 11 11
6 2 4 4 4 6 4 3 4 4 3 2 3 4 4 3 3 3 3 7 6 6 8 9 9 9 9 9 9 9 8 8 8 8 8 8 8 9 9 8 8 8 9 10 11 11 11 10 10
3 5 5 4 3 4 5 4 3 4 4 4 3 4 3 2 1 2 5 7 7 5 7 8 9 9 9 9 9 9 8 8 8 8 8 8 8 9 9 8 8 8 10 10 11 11 11 10 10
4 4 4 1 3 3 3 3 2 2 2 3 2 2 1 2 3 5 6 7 7 4 5 7 9 9 9 9 9 9 8 8 8 8 8 8 8 9 9 9 9 9 10 11 11 11 11 10 10
4 4 3 2 4 3 3 3 1 2 2 2 2 2 1 0 4 5 5 6 6 5 4 6 8 9 9 8 8 9 8 8 8 8 8 8 8 9 9 9 10 10 10 11 11 11 11 11 10
4 4 3 3 2 3 3 3 1 2 2 3 1 2 1 1 2 5 5 5 4 4 3 4 6 8 9 8 8 9 9 8 8 8 8 8 8 8 9 9 9 10 10 11 11 11 11 11 11
4 4 1 1 1 2 3 4 2 2 3 2 2 3 3 4 3 5 5 5 4 3 2 2 4 5 7 7 8 9 9 9 8 8 8 8 7 7 8 9 10 10 10 10 11 10 10 11 11
4 4 1 2 1 3 3 4 5 4 1 2 1 2 4 4 4 5 4 3 3 2 1 2 2 4 5 6 8 8 9 9 8 8 9 8 6 6 7 9 9 10 10 10 10 9 9 10 10
4 3 3 2 2 2 4 3 4 4 4 3 3 3 2 4 5 5 4 3 3 2 1 1 1 2 4 5 6 7 7 7 7 8 8 8 7 6 7 9 9 10 10 9 9 9 8 9 9
2 4 3 2 2 1 4 5 3 2 4 4 4 3 4 4 4 4 4 4 3 3 2 2 2 2 2 3 5 5 5 6 7 8 8 8 7 6 6 6 7 7 7 7 7 7 7 8 8
0 2 2 3 3 2 3 4 4 4 7 7 6 6 6 6 6 6 5 5 4 3 4 3 2 2 2 3 4 5 5 5 5 7 9 9 6 5 5 5 6 6 6 6 6 6 7 8 9
1 2 3 3 4 4 4 5 5 8 9 5 3 4 6 7 6 5 5 5 4 3 3 3 3 3 3 2 2 3 4 4 5 7 9 9 7 5 5 4 5 5 6 6 6 6 6 6 7
2 3 5 6 6 3 4 6 4 8 6 3 3 5 6 6 5 4 5 5 5 4 3 3 3 3 3 2 2 2 4 5 5 6 8 10 9 7 6 4 4 5 6 6 7 6 6 5 5
2 4 6 4 4 3 1 6 5 8 4 3 4 5 5 5 5 6 7 6 6 5 4 3 3 3 3 2 2 2 3 5 5 5 8 9 9 9 7 4 4 5 7 8 7 6 6 4 4
2 3 4 5 2 2 2 7 8 6 3 4 5 4 5 5 6 6 5 5 5 5 4 3 3 2 3 2 2 2 2 3 4 5 6 7 9 9 8 5 4 7 8 7 4 3 3 3 3
3 2 4 6 3 1 2 7 8 4 3 4 5 5 4 5 5 5 5 5 5 6 6 4 3 3 2 2 2 2 3 3 3 5 6 7 8 9 8 5 5 8 6 5 4 3 3 3 3
3 3 4 5 4 2 4 9 11 5 2 3 3 4 4 5 7 6 5 5 5 6 6 5 4 3 2 2 2 2 2 2 3 3 4 6 7 9 8 6 6 7 5 4 4 4 3 3 3
4 4 7 8 5 3 7 10 11 7 3 3 3 3 4 6 5 4 4 4 4 5 5 5 5 4 3 2 2 2 2 1 1 2 4 5 6 8 7 5 5 5 4 5 6 4 5 3 3
4 5 7 7 3 3 6 10 10 6 4 5 4 4 5 4 3 3 3 3 5 6 6 6 6 6 5 3 3 2 2 1 1 2 3 4 5 6 7 5 4 4 4 5 5 5 4 3 3
5 5 5 6 7 4 3 7 6 5 3 3 3 3 4 4 4 4 4 5 5 6 6 6 6 5 4 3 2 2 2 2 1 1 2 3 5 5 5 6 5 4 4 5 5 6 6 4 2
6 5 5 5 3 4 1 5 7 5 4 3 4 3 4 4 3 4 4 5 6 7 6 6 6 5 4 4 5 5 4 3 3 2 2 2 4 5 5 6 6 5 4 5 5 5 4 6 4
6 4 3 3 2 4 2 3 8 4 4 5 4 4 4 3 3 3 4 6 6 6 6 6 6 5 5 5 6 6 4 2 1 1 2 2 2 4 5 6 5 4 4 4 5 5 5 4 5
2 2 3 3 2 3 4 5 7 4 4 4 4 3 3 3 2 2 3 3 3 4 4 5 6 6 5 6 5 6 6 4 4 3 3 2 2 2 3 5 4 4 4 4 5 5 5 4 4
2 3 3 4 2 5 2 4 8 5 3 3 2 3 3 2 2 1 1 2 2 4 5 5 6 6 6 6 6 6 6 6 7 6 6 5 3 3 4 3 4 4 4 4 4 4 5 5 5
3 5 4 3 4 5 3 5 6 3 2 0 0 1 2 3 2 2 2 2 3 4 5 6 6 6 6 6 6 5 5 5 4 5 5 5 4 4 4 4 4 4 5 5 5 3 4 4 4
4 4 4 4 2 4 5 5 5 2 3 2 2 3 3 3 3 3 2 2 2 3 5 6 6 5 5 6 5 5 5 4 4 4 4 4 4 3 4 5 5 5 5 5 5 4 4 4 4
4 5 4 3 3 4 6 5 5 4 3 2 2 3 3 4 4 3 2 2 2 3 4 4 5 5 4 5 5 4 5 5 4 4 5 5 5 5 5 5 5 5 5 5 5 4 4 4 4
4 4 4 4 4 4 4 6 4 5 4 3 3 3 3 3 4 4 3 2 1 1 1 2 3 3 3 3 3 3 4 4 4 4 5 5 5 5 6 6 6 6 6 6 6 5 6 6 5
6 6 6 4 5 5 4 7 3 4 4 3 2 2 3 3 4 3 3 2 2 1 1 0 1 2 3 3 3 3 3 3 3 4 4 4 5 5 5 6 6 6 6 6 7 7 6 7 6
Wind_Direction
329 330 32 56 59 56 217 256 253 301 308 290 303 110 122 120 144 157 160 128 132 143 149 150 145 142 140 137 133 130 129 129 126 123 122 123 123 122 121 118 117 116 117 116 113 110 107 107 104
326 347 49 63 100 149 257 254 254 253 253 281 6 69 77 69 72 108 113 141 139 141 143 149 149 145 144 143 140 136 133 133 131 128 127 128 128 128 124 120 122 122 121 119 115 112 110 109 105
332 41 77 83 131 185 209 244 245 274 303 356 19 41 86 96 95 128 173 147 135 133 136 148 151 150 148 148 146 142 138 137 136 133 133 135 134 133 129 127 125 124 123 122 120 117 114 111 110
42 42 58 86 187 218 202 248 290 331 349 18 58 51 50 50 123 158 148 132 128 125 129 143 152 154 151 150 149 147 143 142 142 139 138 139 141 139 135 132 131 129 127 127 125 121 118 115 112
59 74 69 64 236 250 240 259 294 334 326 346 64 86 28 358 97 120 123 122 125 126 130 144 151 154 153 152 154 152 151 149 148 147 146 146 146 144 140 136 134 132 130 127 127 125 122 118 114
54 70 100 216 246 270 293 294 341 336 314 336 76 94 213 38 98 112 107 110 122 130 134 147 150 152 153 156 158 158 157 154 152 152 150 147 149 148 145 141 140 136 134 130 130 129 125 119 114
99 98 156 194 248 284 303 314 315 287 298 284 154 109 240 233 139 125 109 101 101 111 123 140 150 153 156 157 162 163 161 158 151 152 151 147 146 148 149 143 142 139 137 135 133 132 128 120 116
120 105 118 221 235 270 316 338 328 297 261 277 106 142 223 223 159 123 108 102 105 101 114 131 133 146 152 162 164 164 164 159 151 149 146 140 139 143 146 143 142 142 141 140 137 132 129 120 116
86 81 182 223 219 268 319 341 325 310 326 354 333 210 229 173 131 115 102 101 112 99 139 125 120 138 146 155 159 158 161 160 155 151 146 137 133 135 140 144 144 144 145 144 141 135 131 123 116
84 139 213 225 197 256 306 307 306 333 330 324 331 340 111 133 133 135 140 151 149 154 207 141 112 144 154 155 149 151 155 158 153 150 144 141 140 140 143 147 149 148 146 146 145 136 127 122 112
125 181 220 274 259 274 297 300 299 302 289 261 256 229 170 164 165 170 170 174 183 187 199 167 145 153 163 154 149 151 153 158 157 154 154 146 138 135 134 135 142 142 140 133 135 124 115 119 118
93 260 243 266 284 293 278 292 303 259 252 260 233 199 176 187 190 191 189 185 188 206 210 187 166 162 153 162 167 162 159 165 167 165 164 152 142 139 139 136 138 138 136 127 122 116 115 117 123
297 288 293 272 281 273 277 271 275 274 266 270 245 211 199 204 205 201 190 187 186 201 209 191 174 173 156 155 183 170 168 172 176 168 169 164 155 156 150 148 144 140 138 134 128 123 121 119 117
268 296 297 284 272 258 258 280 267 272 273 266 218 221 222 219 217 206 196 193 192 198 210 201 185 172 160 165 189 184 177 166 170 171 173 171 164 157 153 150 147 145 142 137 135 134 126 121 117
318 324 317 286 252 246 252 301 260 260 262 255 233 228 237 235 226 213 206 196 193 192 200 203 186 162 157 160 180 177 176 162 164 172 171 168 163 159 154 150 152 150 144 132 124 122 116 120 119
355 3 322 297 268 245 141 277 277 274 246 254 250 238 244 249 239 230 218 205 190 176 183 184 172 157 152 146 145 160 152 157 160 162 165 164 161 157 151 148 152 147 136 128 122 116 112 117 120
17 324 283 297 294 311 192 267 284 298 248 251 249 251 251 265 256 240 221 200 185 176 175 176 167 165 161 143 137 143 136 147 153 155 161 162 158 158 153 152 150 144 131 128 131 115 116 122 120
254 265 274 274 280 302 270 270 287 299 263 261 261 263 257 252 245 237 220 203 183 177 173 171 162 166 151 132 118 115 118 132 135 149 161 160 157 155 149 148 151 146 136 135 129 122 102 117 129
225 242 269 270 270 279 265 275 284 290 289 274 262 259 265 257 249 235 219 194 172 169 171 173 166 169 158 155 153 153 160 147 144 160 151 154 156 156 149 152 155 153 152 157 148 132 120 111 117
238 264 276 287 291 267 273 280 280 272 249 244 243 240 251 270 279 241 211 187 181 180 180 180 182 180 178 183 179 168 156 157 172 159 146 156 159 161 159 154 160 158 152 156 155 142 133 134 140
257 234 252 272 312 313 309 304 289 280 257 261 261 250 251 243 240 235 214 199 192 191 188 190 190 185 183 170 140 105 78 64 89 162 166 167 168 168 166 164 159 162 162 168 169 158 147 156 163
259 236 241 267 314 297 330 291 288 285 297 287 281 276 270 269 240 228 220 206 201 202 197 192 187 185 182 167 165 163 170 186 212 196 182 172 171 171 174 168 169 172 170 172 178 171 158 157 169
232 251 249 249 228 291 269 224 284 306 291 285 279 273 277 275 254 232 226 218 213 202 195 192 184 187 187 186 184 181 187 190 157 149 166 176 178 176 177 170 168 169 171 174 174 168 165 167 169
220 7 15 44 82 281 243 194 277 259 250 278 289 290 292 297 301 272 242 227 215 199 189 185 186 193 194 194 194 194 191 180 169 179 191 195 200 201 185 171 172 172 172 178 178 172 171 174 168
88 81 17 350 341 256 246 205 251 258 244 223 261 289 304 302 313 301 279 251 223 202 191 188 192 200 200 198 201 204 201 192 194 195 196 195 199 210 204 186 182 177 178 177 169 170 175 172 168
198 158 168 225 244 281 297 240 252 269 260 242 340 299 336 338 325 314 271 254 237 216 198 192 197 202 199 202 208 210 206 201 204 204 199 200 205 205 193 191 188 181 177 174 165 170 175 172 175
168 200 183 157 240 269 271 278 297 329 4 357 347 350 338 324 311 296 289 271 249 224 208 200 201 202 201 204 205 204 204 203 200 197 196 197 195 192 183 185 184 183 179 177 168 176 180 174 181
177 159 121 155 212 261 281 267 247 251 269 297 318 312 303 307 318 309 292 274 258 230 213 198 200 202 203 203 206 212 208 205 196 189 197 198 195 188 182 186 184 184 183 178 176 177 179 175 182
172 179 176 174 188 200 264 269 225 211 215 213 249 274 289 305 315 312 304 294 297 316 208 204 205 196 194 201 205 208 209 205 193 198 203 200 196 189 187 188 187 186 185 182 182 187 178 184 188
199 194 168 187 230 209 228 266 269 205 197 191 228 287 307 317 319 318 324 339 356 356 353 222 211 206 205 202 203 208 205 198 198 206 206 194 193 194 193 190 189 190 189 187 190 194 189 189 195
Height
1513 1513 1514 1516 1520 1532 1534 1527 1520 1516 1514 1511 1510 1509 1509 1512 1516 1521 1518 1517 1518 1519 1520 1521 1522 1523 1524 1524 1525 1525 1526 1527 1528 1529 1529 1530 1530 1531 1531 1532 1532 1533 1533 1534 1534 1535 1536 1537 1537
1513 1513 1515 1516 1527 1539 1534 1524 1519 1514 1513 1511 1510 1509 1510 1512 1513 1514 1515 1516 1517 1518 1519 1520 1521 1522 1523 1523 1524 1524 1525 1526 1527 1528 1528 1529 1530 1530 1531 1532 1532 1533 1533 1534 1534 1535 1536 1537 1537
1512 1513 1515 1519 1529 1533 1527 1519 1516 1513 1512 1511 1510 1510 1511 1513 1513 1514 1514 1515 1517 1518 1518 1519 1520 1521 1521 1522 1523 1523 1524 1525 1526 1527 1528 1528 1529 1530 1530 1531 1532 1532 1533 1534 1534 1535 1536 1537 1537
1513 1514 1516 1524 1527 1523 1520 1516 1514 1513 1512 1511 1511 1512 1513 1514 1514 1514 1514 1515 1516 1517 1517 1518 1518 1519 1520 1521 1521 1522 1523 1524 1525 1526 1527 1527 1528 1529 1530 1530 1531 1532 1533 1533 1534 1535 1536 1537 1537
1513 1514 1522 1528 1525 1520 1517 1515 1514 1514 1513 1512 1511 1512 1513 1514 1513 1513 1513 1514 1514 1515 1516 1516 1517 1518 1518 1519 1520 1521 1522 1523 1523 1524 1525 1526 1527 1528 1529 1530 1531 1531 1532 1533 1534 1535 1535 1536 1537
1514 1516 1529 1531 1524 1520 1517 1515 1514 1514 1513 1512 1511 1512 1512 1513 1513 1513 1513 1513 1513 1514 1515 1515 1516 1516 1517 1518 1519 1519 1520 1521 1522 1523 1524 1525 1526 1527 1528 1529 1530 1531 1532 1533 1534 1534 1535 1536 1537
1515 1520 1526 1526 1524 1521 1517 1515 1515 1514 1513 1513 1511 1512 1512 1512 1512 1512 1512 1512 1513 1513 1513 1514 1514 1515 1515 1516 1517 1518 1519 1520 1521 1522 1523 1524 1525 1526 1527 1528 1529 1530 1531 1532 1533 1534 1535 1536 1537
1515 1520 1524 1525 1523 1521 1517 1516 1515 1514 1512 1512 1511 1511 1510 1511 1511 1511 1511 1511 1511 1512 1512 1512 1512 1513 1513 1514 1515 1516 1517 1518 1519 1520 1521 1522 1523 1524 1526 1527 1528 1529 1530 1531 1532 1533 1535 1536 1537
1515 1524 1527 1523 1522 1520 1517 1516 1514 1513 1512 1510 1510 1510 1508 1509 1509 1509 1509 1509 1509 1510 1510 1509 1510 1511 1512 1512 1513 1514 1515 1516 1517 1518 1519 1521 1522 1523 1524 1526 1527 1528 1529 1530 1531 1533 1534 1536 1537
1516 1526 1523 1519 1518 1518 1516 1515 1514 1512 1510 1509 1508 1508 1507 1507 1506 1506 1505 1505 1506 1507 1507 1507 1508 1509 1509 1510 1511 1512 1513 1514 1516 1517 1518 1519 1521 1522 1523 1524 1526 1527 1528 1529 1531 1532 1533 1535 1536
1517 1521 1518 1517 1516 1516 1515 1514 1513 1512 1510 1508 1506 1505 1505 1504 1504 1504 1504 1504 1505 1505 1505 1505 1506 1506 1507 1508 1508 1510 1511 1512 1514 1515 1516 1517 1519 1520 1522 1523 1524 1525 1527 1528 1530 1531 1533 1534 1536
1518 1517 1517 1516 1515 1515 1514 1513 1511 1510 1508 1506 1505 1503 1503 1502 1502 1502 1502 1502 1503 1503 1503 1503 1503 1504 1505 1506 1506 1507 1509 1510 1511 1513 1514 1516 1517 1518 1520 1521 1523 1524 1525 1527 1528 1530 1532 1533 1535
1518 1517 1515 1514 1514 1513 1512 1511 1510 1507 1505 1503 1502 1501 1500 1500 1499 1500 1500 1501 1501 1501 1500 1500 1501 1502 1503 1503 1504 1505 1506 1508 1509 1511 1512 1514 1515 1517 1518 1520 1521 1522 1524 1525 1527 1529 1530 1532 1534
1517 1516 1515 1513 1511 1511 1510 1509 1509 1503 1502 1501 1500 1499 1499 1498 1498 1497 1498 1498 1498 1498 1499 1498 1499 1500 1501 1501 1501 1503 1504 1506 1507 1509 1510 1512 1513 1515 1516 1518 1519 1521 1522 1524 1525 1527 1529 1531 1533
1517 1517 1514 1511 1510 1509 1510 1509 1505 1501 1501 1500 1498 1498 1497 1496 1496 1495 1495 1494 1495 1496 1496 1496 1496 1498 1499 1499 1500 1500 1502 1503 1505 1507 1509 1510 1511 1513 1515 1516 1518 1519 1521 1522 1524 1526 1528 1529 1531
1518 1520 1520 1512 1509 1508 1512 1511 1501 1500 1499 1498 1497 1495 1495 1495 1494 1493 1493 1493 1494 1494 1494 1494 1495 1495 1496 1497 1498 1499 1500 1501 1503 1505 1506 1508 1509 1511 1513 1514 1516 1517 1519 1521 1522 1524 1526 1528 1529
1522 1525 1521 1515 1509 1508 1510 1508 1499 1498 1497 1495 1495 1493 1493 1492 1491 1491 1491 1491 1491 1491 1492 1492 1493 1494 1494 1495 1496 1497 1498 1500 1501 1503 1504 1506 1508 1509 1511 1512 1514 1515 1517 1519 1521 1522 1524 1526 1528
1524 1524 1520 1516 1510 1509 1509 1505 1498 1496 1495 1493 1492 1491 1491 1490 1489 1489 1489 1489 1489 1489 1490 1490 1491 1492 1492 1493 1494 1495 1497 1498 1499 1501 1502 1504 1506 1508 1509 1511 1512 1513 1515 1517 1519 1521 1522 1524 1526
1518 1520 1519 1514 1508 1509 1506 1502 1496 1493 1493 1491 1490 1490 1489 1487 1487 1487 1486 1486 1486 1487 1488 1488 1488 1489 1490 1490 1491 1492 1494 1496 1497 1498 1500 1501 1503 1505 1507 1509 1510 1511 1513 1515 1517 1519 1520 1522 1524
1517 1518 1517 1511 1507 1507 1505 1500 1493 1490 1489 1488 1487 1487 1486 1486 1485 1484 1484 1484 1484 1484 1485 1485 1486 1486 1487 1488 1489 1491 1493 1494 1495 1497 1498 1499 1501 1503 1505 1507 1508 1509 1511 1513 1514 1516 1518 1520 1522
1515 1516 1514 1512 1508 1505 1505 1501 1494 1488 1486 1486 1485 1484 1484 1483 1483 1482 1482 1482 1482 1482 1482 1483 1483 1484 1485 1486 1487 1489 1490 1491 1492 1493 1495 1497 1499 1501 1503 1504 1506 1507 1509 1511 1512 1514 1516 1517 1519
1514 1509 1509 1509 1513 1514 1510 1513 1496 1490 1487 1484 1483 1482 1482 1481 1481 1480 1480 1479 1479 1479 1480 1481 1481 1482 1482 1483 1484 1485 1486 1487 1489 1491 1493 1495 1496 1498 1500 1502 1503 1505 1506 1508 1510 1512 1513 1515 1516
1509 1507 1507 1508 1511 1514 1511 1512 1500 1491 1488 1484 1481 1480 1479 1479 1479 1478 1478 1477 1477 1477 1478 1478 1479 1480 1480 1481 1482 1483 1484 1485 1487 1489 1490 1492 1494 1496 1497 1499 1500 1502 1504 1505 1507 1509 1511 1512 1514
1506 1508 1508 1512 1514 1514 1506 1511 1501 1492 1486 1483 1480 1479 1478 1477 1477 1476 1476 1476 1476 1476 1476 1476 1476 1477 1478 1478 1479 1480 1481 1482 1484 1486 1487 1489 1490 1492 1494 1496 1498 1499 1501 1503 1505 1506 1508 1509 1511
1508 1513 1519 1518 1520 1511 1503 1505 1497 1485 1482 1480 1479 1478 1477 1476 1476 1475 1474 1473 1473 1473 1473 1473 1474 1474 1475 1475 1476 1477 1478 1480 1481 1483 1485 1486 1487 1489 1490 1492 1494 1496 1498 1500 1502 1503 1504 1506 1507
1507 1510 1517 1517 1517 1512 1503 1502 1491 1483 1480 1478 1478 1477 1476 1475 1474 1473 1472 1471 1471 1470 1471 1471 1471 1471 1472 1473 1473 1474 1475 1477 1478 1480 1482 1483 1484 1486 1488 1490 1491 1493 1495 1497 1499 1500 1501 1503 1504
1505 1508 1507 1515 1516 1515 1506 1496 1487 1481 1480 1478 1478 1476 1475 1474 1473 1472 1470 1469 1468 1468 1468 1468 1468 1469 1470 1470 1471 1472 1473 1474 1475 1477 1478 1480 1481 1483 1484 1486 1488 1490 1492 1494 1495 1496 1498 1499 1501
1500 1503 1511 1513 1512 1511 1502 1497 1491 1483 1481 1479 1478 1476 1475 1474 1472 1470 1469 1467 1466 1466 1466 1466 1467 1467 1467 1468 1469 1470 1470 1471 1472 1474 1475 1476 1478 1479 1481 1482 1484 1486 1488 1490 1491 1492 1494 1495 1497
1501 1502 1504 1510 1511 1509 1506 1495 1481 1479 1478 1478 1477 1476 1474 1472 1471 1469 1468 1466 1465 1464 1464 1464 1464 1465 1465 1465 1466 1467 1468 1469 1469 1471 1472 1473 1474 1476 1477 1479 1480 1482 1484 1486 1487 1488 1490 1492 1493
1494 1495 1500 1505 1505 1506 1505 1495 1477 1476 1476 1476 1476 1475 1473 1472 1470 1468 1467 1465 1464 1463 1463 1462 1463 1463 1463 1463 1464 1465 1465 1466 1466 1467 1468 1469 1471 1472 1474 1475 1477 1478 1480 1481 1483 1485 1486 1488 1489